Regional Weather Roundup
Issued by NWS

Home | Current Version | Previous Version | Graphics & Text | Print | Product List | Glossary On
Versions: 1 2 3 4 5 6 7 8 9 10 11 12 13 14 15 16 17 18 19 20 21 22 23 24 25 26 27 28 29 30 31 32 33 34 35 36 37 38 39 40 41 42 43 44 45 46 47 48 49 50
000
ASUS43 KLMK 201502
RWRKY
KENTUCKY REGIONAL WEATHER ROUNDUP
NATIONAL WEATHER SERVICE LOUISVILLE KY
1100 AM EDT SUN AUG 20 2017

NOTE "FAIR" INDICATES FEW OR NO CLOUDS BELOW 12,000 FEET
WITH NO SIGNIFICANT WEATHER AND/OR OBSTRUCTIONS TO VISIBILITY.

KYZ001>023-026-027-061>063-070>075-201600-
WESTERN AND SOUTH CENTRAL KENTUCKY

CITY           SKY/WX    TMP DP  RH WIND       PRES   REMARKS
PADUCAH        SUNNY     84  72  67 SW5       30.07R
HENDERSON      CLOUDY    81  73  76 SE3       30.08R
OWENSBORO      CLOUDY    78  72  81 CALM      30.09R
HOPKINSVILLE   SUNNY     85  71  64 CALM      30.09R HX  90
BOWLING GREEN  MOSUNNY   85  74  69 SW3       30.10R HX  92
GLASGOW        SUNNY     83  71  65 CALM      30.11S
$$

KYZ024-025-028>034-038-045-046-053-201600-
NORTH CENTRAL KENTUCKY

CITY           SKY/WX    TMP DP  RH WIND       PRES   REMARKS
LOUISVILLE/SDF MOSUNNY   84  71  65 VRB3      30.09R
LOUISVILLE/LOU SUNNY     83  72  69 VRB5      30.09R
FORT KNOX      SUNNY     83  72  67 S3        30.09R
$$

KYZ035>037-039>044-047>052-055>060-089>105-201600-
NORTHEAST KENTUCKY

CITY           SKY/WX    TMP DP  RH WIND       PRES   REMARKS
LEXINGTON      MOSUNNY   82  67  60 SW7       30.12S
COVINGTON      MOSUNNY   82  72  71 S3        30.09S
FRANKFORT      MOSUNNY   83  70  64 VRB3      30.10S
$$

KYZ054-064>069-076>088-106>120-201600-
SOUTHEAST KENTUCKY

CITY           SKY/WX    TMP DP  RH WIND       PRES   REMARKS
JACKSON        SUNNY     79  68  69 SE3       30.16R
LONDON         SUNNY     80  67  64 SE5       30.15S
SOMERSET       NOT AVBL
MIDDLESBORO    SUNNY     74  69  84 CALM      30.18R
MONTICELLO     SUNNY     83  70  64 NW9       30.15S
$$





USA.gov is the U.S. government's official web portal to all federal, state and local government web resources and services.